Concordia, KS

6:03 PM CST on January 23, 2018 (GMT -0600)
Blosser Municipal

Weather History for KCNK - May, 2013

Change the Weather History Date:

Monday, May 20, 2013

  Actual Average Record
Temperature  
Mean Temperature 66 °F 64 °F  
Max Temperature 77 °F 75 °F 98 °F (1956)
Min Temperature 55 °F 53 °F 33 °F (1931)
Degree Days  
Heating Degree Days 0 3  
Month to date heating degree days 139 105  
Since 1 July heating degree days 5486 5369  
Cooling Degree Days 1 3  
Month to date cooling degree days 41 31  
Year to date cooling degree days 51 48  
Growing Degree Days 16 (Base 50)    
Moisture  
Dew Point 51 °F    
Average Humidity 62    
Maximum Humidity 86    
Minimum Humidity 38    
Precipitation  
Precipitation 0.00 in 0.14 in 2.40 in (1982)
Month to date precipitation 4.15 2.58  
Year to date precipitation 10.00 8.41  
Snow  
Snow 0.00 in 0.00 in T in (1953)
Month to date snowfall T 0.0  
Year to date snowfall 20.3 13.7  
Since 1 July snowfall 28.8 20.2  
Snow Depth 0.00 in    
Sea Level Pressure  
Sea Level Pressure 29.66 in    
Wind  
Wind Speed 12 mph (WSW)    
Max Wind Speed 24 mph    
Max Gust Speed 30 mph    
Visibility 10 miles    
Events      
T = Trace of Precipitation, MM = Missing Value Source: NWS Daily Summary

Daily Weather History Graph

Daily Weather History Graph

Search for Another Location

Airport or City:

Trip Planner

Search our weather history database for the weather conditions in past years. The results will help you decide how hot, cold, wet, or windy it might be!

Date:

Astronomy

May. 20, 2013 Rise Set
Actual Time 6:12 AM CDT 8:42 PM CDT
Civil Twilight 5:41 AM CDT 9:13 PM CDT
Nautical Twilight 5:02 AM CDT 9:52 PM CDT
Astronomical Twilight 4:20 AM CDT 10:35 PM CDT
Moon 3:52 PM CDT (5/20) 3:06 AM CDT (5/20)
Length of Visible Light 15h 32m
Length of Day
14h 30m
Waxing Gibbous, 75% of the Moon is Illuminated
May 20
Waxing Gibbous
May 24
Full
May 31
Last Quarter
Jun 8
New
Jun 16
First Quarter

Hourly Weather History & Observations

Time (CDT) Temp. Dew Point Humidity Pressure Visibility Wind Dir Wind Speed Gust Speed Precip Events Conditions
12:55 AM 57.9 °F 51.1 °F 78% 29.62 in 10.0 mi SW 10.4 mph - N/A   Clear
1:55 AM 57.9 °F 50.0 °F 75% 29.60 in 10.0 mi WSW 10.4 mph - N/A   Clear
2:55 AM 57.2 °F 50.0 °F 77% 29.62 in 10.0 mi WSW 9.2 mph - N/A   Clear
3:55 AM 57.0 °F 50.0 °F 77% 29.60 in 10.0 mi SW 12.7 mph - N/A   Clear
4:55 AM 55.9 °F 50.0 °F 80% 29.63 in 10.0 mi WSW 10.4 mph - N/A   Clear
5:55 AM 55.0 °F 50.0 °F 83% 29.65 in 10.0 mi WSW 8.1 mph - N/A   Clear
6:55 AM 55.9 °F 51.1 °F 84% 29.68 in 10.0 mi WSW 8.1 mph - N/A   Clear
7:55 AM 59.0 °F 53.1 °F 81% 29.71 in 10.0 mi SW 6.9 mph - N/A   Clear
8:55 AM 62.6 °F 53.6 °F 72% 29.74 in 10.0 mi WSW 5.8 mph - N/A   Clear
9:55 AM 64.9 °F 55.0 °F 70% 29.71 in 10.0 mi West 9.2 mph - N/A   Clear
10:55 AM 68.0 °F 54.0 °F 61% 29.71 in 10.0 mi WSW 10.4 mph - N/A   Clear
11:55 AM 70.0 °F 55.0 °F 59% 29.70 in 10.0 mi WSW 12.7 mph - N/A   Scattered Clouds
12:55 PM 71.1 °F 55.0 °F 57% 29.69 in 10.0 mi SW 11.5 mph 18.4 mph N/A   Scattered Clouds
1:55 PM 73.9 °F 57.0 °F 55% 29.68 in 10.0 mi SSW 13.8 mph 20.7 mph N/A   Mostly Cloudy
2:55 PM 73.0 °F 55.9 °F 55% 29.67 in 10.0 mi WSW 10.4 mph - N/A   Mostly Cloudy
3:55 PM 75.9 °F 53.1 °F 45% 29.65 in 10.0 mi West 16.1 mph 19.6 mph N/A   Mostly Cloudy
4:55 PM 75.9 °F 54.0 °F 46% 29.62 in 10.0 mi SSW 15.0 mph - N/A   Clear
5:55 PM 75.9 °F 48.9 °F 38% 29.61 in 10.0 mi West 23.0 mph 27.6 mph N/A   Clear
6:55 PM 73.9 °F 48.0 °F 40% 29.61 in 10.0 mi West 17.3 mph 21.9 mph N/A   Clear
7:55 PM 71.1 °F 46.9 °F 42% 29.62 in 10.0 mi West 17.3 mph 23.0 mph N/A   Clear
8:55 PM 66.2 °F 46.4 °F 49% 29.68 in 10.0 mi West 16.1 mph 24.2 mph N/A   Clear
9:55 PM 61.0 °F 46.0 °F 58% 29.68 in 10.0 mi West 11.5 mph - N/A   Clear
10:55 PM 59.0 °F 48.0 °F 67% 29.70 in 10.0 mi West 12.7 mph - N/A   Clear
11:55 PM 57.9 °F 48.0 °F 70% 29.71 in 10.0 mi West 12.7 mph - N/A   Clear